FW7070 Weather Reports


time (UTC)temp
C
wind
direction
speed
KPH
gust
KPH
rain 1hr
cm
rain 24hr
cm
rain mn
cm
humidity
%
barometer
mb
20260507233316 8 235 4.8 8.0 0.00 0.00 0.00 67 1031.1
20260507232814 8 260 9.7 14.5 0.00 0.00 0.00 66 1030.9
20260507232310 9 271 8.0 11.3 0.00 0.00 0.00 66 1031.1
20260507231807 9 356 3.2 12.9 0.00 0.00 0.00 66 1031.2
20260507231304 9 281 4.8 20.9 0.00 0.00 0.00 66 1031.2
20260507230800 9 271 8.0 14.5 0.00 0.00 0.00 66 1031.1
20260507230258 9 275 3.2 12.9 0.00 0.00 0.00 64 1031.3
20260507225757 9 289 6.4 19.3 0.00 0.00 0.00 62 1031.1
20260507225254 10 255 8.0 22.5 0.00 0.00 0.00 59 1031.2
20260507224750 10 282 4.8 25.7 0.00 0.00 0.00 57 1031.3
20260507224247 10 257 12.9 22.5 0.00 0.00 0.00 56 1031.2
20260507223743 10 271 16.1 17.7 0.00 0.00 0.00 57 1031.1
20260507223240 10 244 6.4 20.9 0.00 0.00 0.00 57 1030.9
20260507222737 10 301 9.7 19.3 0.00 0.00 0.00 58 1030.9
20260507222233 10 285 4.8 19.3 0.00 0.00 0.00 55 1031.1
20260507221730 11 279 11.3 16.1 0.00 0.00 0.00 52 1030.9
20260507221226 11 265 11.3 20.9 0.00 0.00 0.00 52 1031.1
20260507220723 11 262 14.5 19.3 0.00 0.00 0.00 51 1030.8
20260507220221 11 282 8.0 17.7 0.00 0.00 0.00 51 1030.9
20260507215717 11 335 4.8 17.7 0.00 0.00 0.00 50 1030.8
20260507215215 11 254 4.8 11.3 0.00 0.00 0.00 51 1031.2
20260507214712 11 281 9.7 29.0 0.00 0.00 0.00 48 1030.9
20260507214209 11 289 6.4 16.1 0.00 0.00 0.00 50 1030.8
20260507213704 11 252 9.7 16.1 0.00 0.00 0.00 52 1030.6
20260507213201 11 261 6.4 16.1 0.00 0.00 0.00 51 1030.6
20260507212657 11 346 6.4 11.3 0.00 0.00 0.00 49 1030.4
20260507212154 11 313 8.0 17.7 0.00 0.00 0.00 49 1030.7
20260507211651 11 281 8.0 17.7 0.00 0.00 0.00 49 1030.6
20260507211146 11 300 6.4 14.5 0.00 0.00 0.00 51 1030.6
20260507210644 11 289 8.0 19.3 0.00 0.00 0.00 50 1030.7
20260507210141 11 272 11.3 22.5 0.00 0.00 0.00 50 1030.4
20260507205637 11 293 6.4 14.5 0.00 0.00 0.00 51 1030.6
20260507205134 11 280 4.8 17.7 0.00 0.00 0.00 51 1030.7
20260507204630 11 268 12.9 19.3 0.00 0.00 0.00 50 1030.4
20260507204128 11 262 4.8 12.9 0.00 0.00 0.00 51 1030.6
20260507203626 11 266 11.3 24.1 0.00 0.00 0.00 50 1030.7
20260507203123 12 320 8.0 12.9 0.00 0.00 0.00 49 1030.8
20260507202619 12 253 6.4 20.9 0.00 0.00 0.00 50 1030.7
20260507202115 12 253 8.0 16.1 0.00 0.00 0.00 49 1030.8
20260507201610 11 292 6.4 12.9 0.00 0.00 0.00 52 1030.8
20260507201108 11 312 8.0 19.3 0.00 0.00 0.00 53 1030.7
20260507200602 11 259 11.3 17.7 0.00 0.00 0.00 53 1030.7
20260507200059 11 268 4.8 17.7 0.00 0.00 0.00 52 1030.9
20260507195557 11 278 6.4 17.7 0.00 0.00 0.00 54 1030.9
20260507195054 12 259 8.0 16.1 0.00 0.00 0.00 49 1030.7
20260507194550 11 283 3.2 14.5 0.00 0.00 0.00 51 1030.9
20260507194046 12 299 6.4 14.5 0.00 0.00 0.00 48 1031.1
20260507193543 12 349 3.2 11.3 0.00 0.00 0.00 52 1030.9
20260507193040 12 359 9.7 14.5 0.00 0.00 0.00 48 1030.9
20260507192536 12 353 8.0 14.5 0.00 0.00 0.00 49 1031.2
20260507192033 12 328 4.8 14.5 0.00 0.00 0.00 57 1031.3
20260507191528 12 317 11.3 14.5 0.00 0.00 0.00 49 1031.2
20260507191026 12 294 4.8 14.5 0.00 0.00 0.00 57 1031.3
20260507190523 11 249 14.5 16.1 0.00 0.00 0.00 55 1031.3
20260507190022 11 296 4.8 19.3 0.00 0.00 0.00 54 1031.3
20260507185520 12 279 8.0 11.3 0.00 0.00 0.00 62 1031.1
20260507185016 11 261 4.8 20.9 0.00 0.00 0.00 60 1031.4
20260507184514 11 359 3.2 8.0 0.00 0.00 0.00 65 1031.3
20260507184012 11 16 3.2 9.7 0.00 0.00 0.00 67 1031.5
20260507183507 11 357 3.2 9.7 0.00 0.00 0.00 68 1031.4
20260507183005 11 262 4.8 11.3 0.00 0.00 0.00 67 1031.5
20260507182501 11 354 4.8 9.7 0.00 0.00 0.00 66 1031.6
20260507181957 11 291 4.8 12.9 0.00 0.00 0.00 68 1031.4
20260507181454 11 21 4.8 11.3 0.00 0.00 0.00 71 1031.8
20260507180950 11 337 4.8 6.4 0.00 0.00 0.00 71 1031.7
20260507180447 11 336 8.0 12.9 0.00 0.00 0.00 70 1031.5
20260507175943 11 93 4.8 11.3 0.00 0.00 0.00 73 1031.8
20260507175440 11 286 3.2 14.5 0.00 0.00 0.00 71 1031.6
20260507174937 11 14 3.2 9.7 0.00 0.00 0.00 70 1031.6
20260507174434 11 326 3.2 11.3 0.00 0.00 0.00 70 1031.5
20260507173932 10 355 4.8 11.3 0.00 0.00 0.00 71 1031.5
20260507173429 11 289 8.0 9.7 0.00 0.00 0.00 71 1031.7
20260507172926 10 325 6.4 14.5 0.00 0.00 0.00 67 1031.7
20260507172422 10 260 12.9 17.7 0.00 0.00 0.00 70 1031.9
20260507171918 10 315 6.4 14.5 0.00 0.00 0.00 71 1031.8
20260507171415 10 345 4.8 8.0 0.00 0.00 0.00 72 1031.7
20260507170912 10 315 4.8 12.9 0.00 0.00 0.00 73 1032.0
20260507170408 10 347 6.4 11.3 0.00 0.00 0.00 71 1032.2
20260507165905 10 325 6.4 17.7 0.00 0.00 0.00 72 1032.1
20260507165400 10 297 6.4 17.7 0.00 0.00 0.00 70 1032.2
20260507164856 11 307 6.4 11.3 0.00 0.00 0.00 72 1032.0
20260507164354 11 308 8.0 17.7 0.00 0.00 0.00 73 1032.0
20260507163851 10 325 8.0 12.9 0.00 0.00 0.00 72 1031.9
20260507163348 10 311 6.4 11.3 0.00 0.00 0.00 71 1031.9
20260507162845 10 284 4.8 11.3 0.00 0.00 0.00 70 1032.0
20260507162340 11 265 6.4 11.3 0.00 0.00 0.00 71 1032.2
20260507161837 10 281 6.4 16.1 0.00 0.00 0.00 75 1032.2
20260507161334 10 272 4.8 14.5 0.00 0.00 0.00 71 1032.0
20260507160830 10 300 6.4 11.3 0.00 0.00 0.00 70 1032.4
20260507160326 10 257 6.4 17.7 0.00 0.00 0.00 71 1032.2
20260507155823 10 280 4.8 11.3 0.00 0.00 0.00 72 1032.3
20260507155319 10 277 11.3 14.5 0.00 0.00 0.00 71 1032.4
20260507154816 10 252 9.7 12.9 0.00 0.00 0.00 70 1032.3
20260507154313 10 325 4.8 14.5 0.00 0.00 0.00 69 1032.5
20260507153810 10 258 11.3 14.5 0.00 0.00 0.00 71 1032.4
20260507153306 10 265 6.4 12.9 0.00 0.00 0.00 71 1032.3
20260507152803 10 254 8.0 19.3 0.00 0.00 0.00 71 1032.5
20260507152259 10 269 8.0 22.5 0.00 0.00 0.00 69 1032.4
20260507151755 10 293 4.8 11.3 0.00 0.00 0.00 72 1032.3
20260507151251 10 323 3.2 12.9 0.00 0.00 0.00 74 1032.5
20260507150748 10 269 11.3 14.5 0.00 0.00 0.00 68 1032.6
20260507150245 10 244 6.4 12.9 0.00 0.00 0.00 69 1032.5
20260507145741 10 261 19.3 19.3 0.00 0.00 0.00 69 1032.4
20260507145238 10 235 14.5 16.1 0.00 0.00 0.00 72 1032.3
20260507144735 10 252 11.3 16.1 0.00 0.00 0.00 68 1032.5
20260507144233 10 255 6.4 12.9 0.00 0.00 0.00 69 1032.7
20260507143729 10 306 4.8 12.9 0.00 0.00 0.00 71 1032.6
20260507143226 9 261 3.2 14.5 0.00 0.00 0.00 70 1032.6
20260507142722 9 246 17.7 25.7 0.00 0.00 0.00 71 1032.4
20260507142219 9 303 3.2 16.1 0.00 0.00 0.00 71 1032.3
20260507141715 10 269 4.8 9.7 0.00 0.00 0.00 69 1032.7
20260507141213 10 314 8.0 14.5 0.00 0.00 0.00 68 1032.6
20260507140708 9 228 4.8 12.9 0.00 0.00 0.00 70 1032.5
20260507140206 9 248 9.7 19.3 0.00 0.00 0.00 68 1032.7
20260507135703 9 233 16.1 19.3 0.00 0.00 0.00 70 1032.6
20260507135200 9 316 11.3 16.1 0.00 0.00 0.00 70 1032.7
20260507134657 9 300 4.8 11.3 0.00 0.00 0.00 70 1032.7
20260507134153 9 275 4.8 14.5 0.00 0.00 0.00 71 1033.0
20260507133648 8 273 6.4 12.9 0.00 0.00 0.00 70 1032.8
20260507133146 9 257 6.4 17.7 0.00 0.00 0.00 70 1032.9
20260507132643 8 261 4.8 12.9 0.00 0.00 0.00 73 1033.0
20260507132139 8 261 4.8 14.5 0.00 0.00 0.00 74 1032.8
20260507131636 8 264 8.0 14.5 0.00 0.00 0.00 72 1032.8
20260507131134 8 297 4.8 6.4 0.00 0.00 0.00 74 1032.9
20260507130630 8 242 4.8 8.0 0.00 0.00 0.00 72 1032.8
20260507130128 8 289 3.2 8.0 0.00 0.00 0.00 72 1032.9
20260507125627 7 269 0.0 4.8 0.00 0.00 0.00 75 1033.1
20260507125124 8 316 3.2 4.8 0.00 0.00 0.00 76 1032.8
20260507124620 7 173 0.0 9.7 0.00 0.00 0.00 77 1033.0
20260507124118 8 301 3.2 8.0 0.00 0.00 0.00 76 1033.1
20260507123616 8 193 1.6 4.8 0.00 0.00 0.00 75 1033.1
20260507123113 8 130 0.0 4.8 0.00 0.00 0.00 74 1033.1
20260507122608 8 102 6.4 8.0 0.00 0.00 0.00 74 1033.0
20260507122104 8 17 1.6 3.2 0.00 0.00 0.00 76 1033.2
20260507121600 8 136 3.2 6.4 0.00 0.00 0.00 79 1033.1
20260507121056 8 128 3.2 8.0 0.00 0.00 0.00 79 1033.0
20260507120552 7 52 0.0 4.8 0.00 0.00 0.00 80 1033.1
20260507120049 7 111 3.2 3.2 0.00 0.00 0.00 84 1033.1
20260507115545 6 93 3.2 4.8 0.00 0.00 0.00 85 1033.2
20260507115041 6 132 4.8 8.0 0.00 0.00 0.00 86 1033.0
20260507114537 6 64 3.2 4.8 0.00 0.00 0.00 87 1033.0
20260507114035 6 99 1.6 4.8 0.00 0.00 0.00 87 1033.2
20260507113532 6 101 4.8 4.8 0.00 0.00 0.00 87 1033.0
20260507113029 5 160 1.6 4.8 0.00 0.00 0.00 87 1033.4
20260507112527 5 106 6.4 8.0 0.00 0.00 0.00 86 1033.1
20260507112023 5 149 4.8 6.4 0.00 0.00 0.00 87 1032.8
20260507111520 5 69 3.2 4.8 0.00 0.00 0.00 86 1033.1
20260507111016 5 339 3.2 9.7 0.00 0.00 0.00 85 1032.8
20260507110513 5 28 1.6 9.7 0.00 0.00 0.00 86 1032.7
20260507110010 5 74 4.8 11.3 0.00 0.00 0.00 85 1032.6
20260507105506 5 44 3.2 4.8 0.00 0.00 0.00 82 1032.3
20260507105003 5 248 0.0 3.2 0.00 0.00 0.00 81 1032.0
20260507104500 4 218 3.2 4.8 0.00 0.00 0.00 82 1032.0
20260507103956 4 206 0.0 6.4 0.00 0.00 0.00 85 1032.1
20260507103453 3 193 4.8 8.0 0.00 0.00 0.00 89 1031.9
20260507102949 3 195 0.0 4.8 0.00 0.00 0.00 93 1031.9
20260507102446 2 201 1.6 6.4 0.00 0.00 0.00 94 1031.9
20260507101942 2 189 0.0 4.8 0.00 0.00 0.00 95 1032.0
20260507101437 2 119 0.0 3.2 0.00 0.00 0.00 95 1032.0
20260507100934 2 139 1.6 4.8 0.00 0.00 0.00 95 1031.7
20260507100432 2 147 1.6 4.8 0.00 0.00 0.00 95 1031.7
20260507095930 2 127 0.0 3.2 0.00 0.00 0.00 95 1031.8
20260507095427 2 132 1.6 4.8 0.00 0.00 0.00 95 1031.5
20260507094924 2 146 3.2 4.8 0.00 0.00 0.00 95 1031.9
20260507094420 3 127 3.2 4.8 0.00 0.00 0.00 95 1031.9
20260507093917 3 144 3.2 4.8 0.00 0.00 0.00 94 1031.7
20260507093415 3 136 3.2 3.2 0.00 0.00 0.00 94 1031.9
20260507092913 3 130 1.6 4.8 0.00 0.00 0.00 94 1031.6
20260507092409 3 132 3.2 4.8 0.00 0.00 0.00 93 1031.8
20260507091906 3 122 3.2 4.8 0.00 0.00 0.00 93 1032.0
20260507091402 3 112 1.6 3.2 0.00 0.00 0.00 92 1032.1
20260507090857 3 186 3.2 3.2 0.00 0.00 0.00 93 1032.1
20260507090354 2 172 1.6 3.2 0.00 0.00 0.00 94 1031.9
20260507085851 3 133 3.2 4.8 0.00 0.00 0.00 94 1032.3
20260507085348 3 70 0.0 3.2 0.00 0.00 0.00 94 1032.2
20260507084845 2 131 0.0 3.2 0.00 0.00 0.00 94 1032.1
20260507084341 2 136 1.6 4.8 0.00 0.00 0.00 95 1032.2
20260507083839 2 207 0.0 4.8 0.00 0.00 0.00 95 1032.0
20260507083335 2 120 0.0 3.2 0.00 0.00 0.00 95 1032.2
20260507082832 2 160 0.0 4.8 0.00 0.00 0.00 95 1032.5
20260507082327 2 200 1.6 8.0 0.00 0.00 0.00 96 1032.4
20260507081825 2 209 1.6 4.8 0.00 0.00 0.00 96 1032.3
20260507081321 2 224 1.6 3.2 0.00 0.00 0.00 96 1032.5
20260507080817 2 153 1.6 3.2 0.00 0.00 0.00 96 1032.4
20260507080314 2 144 1.6 4.8 0.00 0.00 0.00 96 1032.5
20260507075809 2 164 3.2 3.2 0.00 0.00 0.00 96 1032.6
20260507075307 2 202 3.2 6.4 0.00 0.00 0.00 96 1032.7
20260507074802 2 202 4.8 4.8 0.00 0.00 0.00 96 1032.6
20260507074300 2 209 3.2 3.2 0.00 0.00 0.00 95 1032.6
20260507073757 3 151 0.0 1.6 0.00 0.00 0.00 94 1032.6
20260507073253 3 119 0.0 3.2 0.00 0.00 0.00 94 1032.6
20260507072751 3 144 3.2 3.2 0.00 0.00 0.00 95 1032.5
20260507072248 3 117 1.6 4.8 0.00 0.00 0.00 94 1032.4
20260507071746 3 114 0.0 3.2 0.00 0.00 0.00 94 1032.5
20260507071241 3 114 1.6 3.2 0.00 0.00 0.00 93 1032.5
20260507070739 4 120 0.0 3.2 0.00 0.00 0.00 93 1032.4
20260507070236 3 128 1.6 3.2 0.00 0.00 0.00 92 1032.5
20260507065732 3 110 1.6 3.2 0.00 0.00 0.00 92 1032.6
20260507065229 3 122 0.0 3.2 0.00 0.00 0.00 92 1032.6
20260507064726 3 178 0.0 4.8 0.00 0.00 0.00 92 1032.4
20260507064226 3 189 1.6 3.2 0.00 0.00 0.00 93 1032.3
20260507063722 3 218 3.2 4.8 0.00 0.00 0.00 94 1032.8
20260507063219 3 204 1.6 6.4 0.00 0.00 0.00 96 1032.7
20260507062716 4 209 1.6 4.8 0.00 0.00 0.00 96 1032.8
20260507062214 4 172 3.2 4.8 0.00 0.00 0.00 96 1033.1
20260507061711 5 164 0.0 3.2 0.00 0.00 0.00 96 1033.0
20260507061209 5 202 0.0 1.6 0.00 0.00 0.00 95 1033.1
20260507060707 5 188 0.0 3.2 0.00 0.00 0.00 95 1033.1
20260507060203 5 200 3.2 3.2 0.00 0.00 0.00 95 1032.9
20260507055659 5 153 1.6 1.6 0.00 0.00 0.00 94 1033.3
20260507055155 5 173 0.0 1.6 0.00 0.00 0.00 94 1033.2
20260507054651 5 175 0.0 3.2 0.00 0.00 0.00 94 1033.1
20260507054148 5 135 0.0 1.6 0.00 0.00 0.00 95 1032.9
20260507053646 5 170 0.0 3.2 0.00 0.00 0.00 95 1033.2
20260507053144 5 123 0.0 1.6 0.00 0.00 0.00 95 1033.1
20260507052642 5 132 0.0 3.2 0.00 0.00 0.00 96 1033.2
20260507052138 5 143 0.0 3.2 0.00 0.00 0.00 96 1033.4
20260507051636 5 164 0.0 3.2 0.00 0.00 0.00 97 1033.2
20260507051132 5 157 0.0 3.2 0.00 0.00 0.00 97 1033.5
20260507050629 5 236 0.0 3.2 0.00 0.00 0.00 97 1033.2
20260507050126 5 67 0.0 3.2 0.00 0.00 0.00 97 1033.4
20260507045623 5 135 3.2 3.2 0.00 0.00 0.00 97 1033.3
20260507045120 5 153 0.0 3.2 0.00 0.00 0.00 97 1033.5
20260507044616 5 124 0.0 1.6 0.00 0.00 0.00 97 1033.6
20260507044113 6 119 0.0 1.6 0.00 0.00 0.00 97 1033.6
20260507043609 6 147 0.0 1.6 0.00 0.00 0.00 97 1033.5
20260507043106 6 157 0.0 1.6 0.00 0.00 0.00 97 1033.5
20260507042602 6 150 0.0 3.2 0.00 0.00 0.00 98 1033.6
20260507042057 6 104 0.0 3.2 0.00 0.00 0.00 98 1033.4
20260507041555 6 224 0.0 1.6 0.00 0.00 0.00 98 1033.4
20260507041052 6 229 0.0 3.2 0.00 0.00 0.00 97 1033.4
20260507040548 6 202 0.0 1.6 0.00 0.00 0.00 97 1033.5
20260507040044 6 205 0.0 0.0 0.00 0.00 0.00 97 1033.5
20260507035540 6 186 0.0 3.2 0.00 0.97 0.97 97 1033.5
20260507035037 6 196 0.0 3.2 0.00 0.97 0.97 97 1033.4
20260507034534 6 204 0.0 3.2 0.00 0.97 0.97 97 1033.7
20260507034032 6 212 0.0 1.6 0.00 0.97 0.97 96 1033.3
20260507033530 6 293 0.0 1.6 0.00 0.97 0.97 96 1033.5
20260507033027 6 22 0.0 1.6 0.00 0.97 0.97 96 1033.3
20260507032524 6 235 0.0 1.6 0.00 0.97 0.97 96 1033.4
20260507032020 6 304 0.0 3.2 0.00 0.97 0.97 95 1033.3
20260507031516 6 261 0.0 3.2 0.00 0.97 0.97 95 1033.2
20260507031014 6 224 0.0 0.0 0.00 0.97 0.97 95 1033.3
20260507030510 6 224 0.0 1.6 0.00 0.97 0.97 95 1033.4
20260507030008 6 28 0.0 1.6 0.00 0.97 0.97 94 1033.3
20260507025504 7 22 0.0 3.2 0.00 0.97 0.97 94 1033.5
20260507025002 7 329 0.0 1.6 0.00 0.97 0.97 93 1033.6
20260507024459 7 255 0.0 1.6 0.00 0.97 0.97 92 1033.3
20260507023955 7 285 0.0 3.2 0.00 0.97 0.97 91 1033.2
20260507023452 7 280 1.6 3.2 0.00 0.97 0.97 91 1033.2
20260507022949 7 199 0.0 3.2 0.00 0.97 0.97 90 1033.2
20260507022447 7 263 0.0 3.2 0.00 0.97 0.97 90 1033.1
20260507021941 7 254 0.0 6.4 0.00 0.97 0.97 89 1033.0
20260507021437 7 336 4.8 6.4 0.00 0.97 0.97 89 1033.2
20260507020935 7 301 0.0 3.2 0.00 0.97 0.97 88 1033.0
20260507020432 7 334 0.0 3.2 0.00 0.97 0.97 88 1033.0
20260507015929 7 262 4.8 11.3 0.00 0.97 0.97 87 1033.3
20260507015427 7 283 4.8 8.0 0.00 0.97 0.97 86 1033.1
20260507014924 7 287 3.2 11.3 0.00 0.97 0.97 86 1033.5
20260507014420 7 300 3.2 12.9 0.00 0.97 0.97 84 1033.1
20260507013917 7 261 4.8 8.0 0.00 0.97 0.97 84 1032.8
20260507013414 7 265 3.2 8.0 0.00 0.97 0.97 83 1033.3
20260507012911 7 250 3.2 6.4 0.00 0.97 0.97 83 1033.1
20260507012408 7 250 4.8 6.4 0.00 0.97 0.97 83 1033.2
20260507011904 7 261 4.8 9.7 0.00 0.97 0.97 83 1033.1
20260507011401 7 299 3.2 8.0 0.00 0.97 0.97 84 1033.2
20260507010901 7 252 9.7 11.3 0.00 0.97 0.97 84 1033.0
20260507010357 7 256 4.8 9.7 0.00 0.97 0.97 85 1033.0
20260507005854 7 255 6.4 8.0 0.00 0.97 0.97 86 1033.1
20260507005351 7 267 3.2 8.0 0.00 0.97 0.97 87 1032.9
20260507004848 7 294 1.6 3.2 0.00 0.97 0.97 88 1032.8
20260507004345 7 264 1.6 3.2 0.00 0.97 0.97 88 1032.7
20260507003842 7 306 1.6 3.2 0.00 0.97 0.97 88 1032.8
20260507003337 8 216 3.2 6.4 0.00 0.97 0.97 87 1033.1
20260507002832 7 229 1.6 6.4 0.00 0.97 0.97 89 1032.5
20260507002329 7 155 3.2 4.8 0.00 0.97 0.97 90 1032.8
20260507001826 8 99 3.2 3.2 0.00 0.97 0.97 89 1032.6
20260507001323 7 269 0.0 3.2 0.00 0.97 0.97 89 1032.7
20260507000819 8 50 0.0 1.6 0.00 0.97 0.97 89 1032.6
20260507000315 8 139 0.0 1.6 0.00 0.97 0.97 89 1032.7
20260506235812 8 261 0.0 3.2 0.00 0.97 0.97 88 1032.5
20260506235308 8 304 0.0 1.6 0.00 0.97 0.97 87 1032.5
20260506234805 8 309 1.6 3.2 0.00 0.97 0.97 86 1032.2
20260506234302 8 250 3.2 4.8 0.00 0.97 0.97 85 1032.3
20260506233800 8 208 0.0 4.8 0.00 0.97 0.97 84 1032.4